TimeCDT,TemperatureF,Dew PointF,Humidity,Sea Level PressureIn,VisibilityMPH,Wind Direction,Wind SpeedMPH,Gust SpeedMPH,PrecipitationIn,Events,Conditions,WindDirDegrees,DateUTC
12:56 AM,60.1,57.0,90,29.98,10.0,Calm,Calm,-,N/A,,Mostly Cloudy,0,2013-10-19 05:56:00
1:56 AM,59.0,55.9,90,29.99,10.0,WNW,4.6,-,N/A,,Mostly Cloudy,290,2013-10-19 06:56:00
2:56 AM,59.0,55.9,90,29.99,10.0,WNW,3.5,-,N/A,,Mostly Cloudy,300,2013-10-19 07:56:00
3:56 AM,57.9,55.0,90,29.98,10.0,Calm,Calm,-,N/A,,Mostly Cloudy,0,2013-10-19 08:56:00
4:56 AM,57.9,55.9,93,29.99,10.0,NW,11.5,-,N/A,,Mostly Cloudy,320,2013-10-19 09:56:00
5:38 AM,59.0,57.2,94,30.00,10.0,NW,15.0,20.7,N/A,,Overcast,310,2013-10-19 10:38:00
5:56 AM,59.0,55.9,90,30.01,10.0,NNW,17.3,-,N/A,,Overcast,330,2013-10-19 10:56:00
6:19 AM,59.0,55.4,88,30.02,10.0,NW,11.5,-,N/A,,Overcast,320,2013-10-19 11:19:00
6:56 AM,57.0,52.0,83,30.03,10.0,NW,17.3,21.9,N/A,,Overcast,310,2013-10-19 11:56:00
7:56 AM,55.9,50.0,80,30.06,10.0,NNW,13.8,24.2,N/A,,Overcast,330,2013-10-19 12:56:00
8:56 AM,54.0,48.0,80,30.10,10.0,NNW,16.1,21.9,N/A,,Overcast,330,2013-10-19 13:56:00
9:56 AM,53.1,46.9,80,30.12,10.0,NNW,13.8,-,N/A,,Overcast,330,2013-10-19 14:56:00
10:29 AM,53.6,46.4,77,30.13,10.0,NW,15.0,-,N/A,,Overcast,320,2013-10-19 15:29:00
10:56 AM,54.0,45.0,72,30.13,10.0,NNW,12.7,-,N/A,,Overcast,330,2013-10-19 15:56:00
11:56 AM,57.9,46.0,65,30.12,10.0,NNW,6.9,-,N/A,,Mostly Cloudy,340,2013-10-19 16:56:00
11:59 AM,59.0,46.4,63,30.12,10.0,NNW,9.2,-,N/A,,Scattered Clouds,340,2013-10-19 16:59:00
12:56 PM,63.0,46.0,54,30.11,10.0,NNW,10.4,17.3,N/A,,Partly Cloudy,340,2013-10-19 17:56:00
1:56 PM,64.9,44.1,47,30.09,10.0,NNW,12.7,17.3,N/A,,Partly Cloudy,340,2013-10-19 18:56:00
2:56 PM,66.0,41.0,40,30.08,10.0,WNW,4.6,-,N/A,,Partly Cloudy,300,2013-10-19 19:56:00
3:56 PM,66.9,39.0,36,30.07,10.0,North,8.1,-,N/A,,Partly Cloudy,10,2013-10-19 20:56:00
4:56 PM,66.0,39.0,37,30.07,10.0,North,6.9,-,N/A,,Clear,360,2013-10-19 21:56:00
5:56 PM,64.0,39.9,41,30.07,10.0,NW,8.1,-,N/A,,Clear,310,2013-10-19 22:56:00
6:56 PM,59.0,43.0,55,30.07,10.0,NW,4.6,-,N/A,,Clear,310,2013-10-19 23:56:00
7:56 PM,55.0,44.1,67,30.08,10.0,NW,4.6,-,N/A,,Clear,310,2013-10-20 00:56:00
8:56 PM,52.0,45.0,77,30.09,10.0,Calm,Calm,-,N/A,,Clear,0,2013-10-20 01:56:00
9:56 PM,50.0,45.0,83,30.09,10.0,Calm,Calm,-,N/A,,Clear,0,2013-10-20 02:56:00
10:56 PM,48.9,45.0,86,30.09,10.0,Calm,Calm,-,N/A,,Clear,0,2013-10-20 03:56:00
11:56 PM,46.9,44.1,90,30.08,10.0,Calm,Calm,-,N/A,,Clear,0,2013-10-20 04:56:00